カタログに戻る

THORAD AGENA D R/B

運用中SSO
NORAD 4367·ROCKET BODY·🇺🇸 United States

打ち上げ Apr 8, 1970 から Vandenberg Space Force Base

Loading…

次のパス (今後24時間)

TLE

最新Source: Space-Track

元期: Sep 14, 2026, 05:30 UTC

1 04367U 70025C   26257.22977065  .00000015  00000-0  92642-4 0  9997
2 04367  99.9767 341.5624 0035843 179.1312 204.5638 13.51535314794954

AllMySatでTHORAD AGENA D R/Bをリアルタイム追跡

Download on the App Store